YAOGAN-32 B (43643 NORAD) Tracking and Keplerian Element Data

This shows tracking and keplerian element data for the satellite.

Feedback or suggestion? Click here.




ElementValue
Catalog43643
NameYAOGAN-32 B
Epoch Orbit33702
Epoch Day35.13905157
Epoch Year2025
RAAN73.8025
Inclination97.9594
Eccentricity0.0001083
Argument of Perigee94.1031
Mean Anonmoly266.0295
Mean Motion14.62169699
Decay Rate1.549E-05
L11 43643U 18077B 25035.13905157 .00001549 00000+0 31669-3 0 9995
L22 43643 97.9594 73.8025 0001083 94.1031 266.0295 14.62169699337028



Live tracking and technical data element details for YAOGAN-32 B (NORAD 43643). YAOGAN-32 B can be tracked NOW for your location showing map with azimuth and elevation plus other details from your city location.







IsCatalogInMostPopularTable: catalog: 43643, numindb: 308
Update: records affected: 1



GetName: 43643 YAOGAN-32 B

Hit Count: updated at: Sat, 24 May 2025 16:40:25 GMT